Location: Pine Mountain Observatory
(43.7910°N, 120.9377°W)
Time: 11:12:53
(UTC-07:00)

APEX - Visible Passes

Search period start: 18 April 2014 00:00
Search period end: 28 April 2014 00:00
Orbit: 341 x 1437 km, 69.9° (Epoch: 18 April)

Date Brightness Start Highest point End Pass type
(mag) Time Alt. Az. Time Alt. Az. Time Alt. Az.
18 Apr 7.1 20:15:18 10° NW 20:20:29 25° WSW 20:26:35 10° SSW visible
19 Apr 7.4 20:14:48 10° WNW 20:19:34 21° WSW 20:25:03 10° SW visible
20 Apr 7.6 20:14:22 10° WNW 20:18:34 17° WSW 20:23:16 10° SW visible
